Kalamazoo, MI

7:24 PM EST on January 20, 2017 (GMT -0500)
Kalamazoo-Battle Creek International

Weather History for KAZO - February, 2012

Change the Weather History Date:

Saturday, February 11, 2012

  Actual Average Record
Temperature  
Mean Temperature 12 °F 26 °F  
Max Temperature 21 °F 33 °F 70 °F (1999)
Min Temperature 3 °F 19 °F -5 °F (2014)
Degree Days  
Heating Degree Days 53 39  
Month to date heating degree days 437  
Since 1 July heating degree days 4145  
Cooling Degree Days 0 0  
Month to date cooling degree days 0  
Year to date cooling degree days 0  
Moisture  
Dew Point 9 °F    
Average Humidity 79    
Maximum Humidity 91    
Minimum Humidity 63    
Precipitation  
Precipitation T in 0.05 in 0.90 in (1985)
Month to date precipitation 0.04 0.49  
Year to date precipitation 2.28  
Sea Level Pressure  
Sea Level Pressure 30.21 in    
Wind  
Wind Speed 11 mph (NW)    
Max Wind Speed 26 mph    
Max Gust Speed 30 mph    
Visibility 6 miles    
Events Snow    
T = Trace of Precipitation, MM = Missing Value Source: NWS Daily Summary

Daily Weather History Graph

Daily Weather History Graph

Search for Another Location

Airport or City:

Trip Planner

Search our weather history database for the weather conditions in past years. The results will help you decide how hot, cold, wet, or windy it might be!

Date:

Astronomy

Feb. 11, 2012 Rise Set
Actual Time 7:44 AM EST 6:09 PM EST
Civil Twilight 7:15 AM EST 6:38 PM EST
Nautical Twilight 6:42 AM EST 7:11 PM EST
Astronomical Twilight 6:09 AM EST 7:43 PM EST
Moon 11:03 PM EST (2/11) 9:20 AM EST (2/11)
Length of Visible Light 11h 22m
Length of Day
10h 24m
Waning Gibbous, 82% of the Moon is Illuminated
Feb 11
Waning Gibbous
Feb 14
Last Quarter
Feb 21
New
Feb 29
First Quarter
Mar 8
Full

Hourly Weather History & Observations

Time (EST) Temp. Windchill Dew Point Humidity Pressure Visibility Wind Dir Wind Speed Gust Speed Precip Events Conditions
12:02 AM 12.2 °F -6.7 °F 8.6 °F 85% 30.03 in 2.5 mi NNW 21.9 mph 28.8 mph 0.00 in Snow Light Snow
12:25 AM 10.4 °F -7.2 °F 6.8 °F 85% 30.05 in 4.0 mi North 17.3 mph 26.5 mph 0.00 in Snow Light Snow
12:53 AM 10.9 °F -5.9 °F 6.1 °F 81% 30.10 in 3.0 mi North 16.1 mph 25.3 mph 0.00 in Snow Light Snow
1:08 AM 10.4 °F -9.1 °F 5.0 °F 79% 30.06 in 6.0 mi North 21.9 mph 28.8 mph 0.00 in Snow Light Snow
1:53 AM 10.9 °F -5.9 °F 3.9 °F 73% 30.11 in 10.0 mi North 16.1 mph - 0.00 in   Overcast
2:53 AM 10.9 °F -4.7 °F 5.0 °F 77% 30.14 in 10.0 mi North 13.8 mph - N/A   Overcast
3:53 AM 10.0 °F -2.9 °F 3.9 °F 76% 30.14 in 10.0 mi North 9.2 mph - N/A   Clear
4:53 AM 7.0 °F -6.6 °F 1.9 °F 80% 30.15 in 10.0 mi North 9.2 mph - N/A   Clear
5:53 AM 6.1 °F -7.8 °F 1.0 °F 80% 30.17 in 10.0 mi North 9.2 mph - N/A   Clear
6:53 AM 5.0 °F -4.1 °F 1.9 °F 87% 30.19 in 10.0 mi North 4.6 mph - N/A   Clear
7:53 AM 3.0 °F -6.4 °F 1.0 °F 91% 30.23 in 10.0 mi NNW 4.6 mph - N/A   Clear
8:53 AM 7.0 °F -1.7 °F 3.9 °F 87% 30.26 in 10.0 mi North 4.6 mph - N/A   Clear
9:53 AM 12.0 °F 0.5 °F 5.0 °F 73% 30.27 in 10.0 mi North 8.1 mph - N/A   Clear
10:53 AM 15.1 °F 1.8 °F 6.1 °F 68% 30.28 in 10.0 mi North 11.5 mph - N/A   Mostly Cloudy
11:53 AM 17.1 °F 5.0 °F 7.0 °F 65% 30.28 in 10.0 mi North 10.4 mph - N/A   Scattered Clouds
12:53 PM 19.0 °F 6.8 °F 9.0 °F 65% 30.27 in 10.0 mi NNW 11.5 mph - N/A   Overcast
1:53 PM 19.9 °F 6.2 °F 10.9 °F 68% 30.26 in 10.0 mi NW 15.0 mph - N/A   Overcast
2:13 PM 19.4 °F 7.2 °F 12.2 °F 74% 30.20 in 2.0 mi NW 11.5 mph - 0.00 in Snow Light Snow
2:50 PM 19.4 °F 8.6 °F 14.0 °F 80% 30.21 in 1.5 mi NW 9.2 mph - 0.00 in Snow Light Snow
2:53 PM 19.9 °F 10.1 °F 14.0 °F 78% 30.26 in 1.5 mi NW 8.1 mph - 0.00 in Snow Light Snow
3:28 PM 19.4 °F 10.4 °F 15.8 °F 86% 30.21 in 1.0 mi West 6.9 mph - 0.00 in Snow Light Snow
3:53 PM 19.9 °F 4.8 °F 14.0 °F 78% 30.27 in 1.0 mi WNW 18.4 mph 26.5 mph 0.00 in Snow Light Snow
4:00 PM 21.2 °F 7.3 °F 14.0 °F 74% 30.21 in 3.0 mi WNW 16.1 mph 25.3 mph 0.00 in Snow Light Snow
4:53 PM 19.0 °F 3.6 °F 10.9 °F 71% 30.28 in 9.0 mi WNW 18.4 mph 25.3 mph 0.00 in   Overcast
5:12 PM 19.4 °F 5.5 °F 12.2 °F 74% 30.23 in 1.5 mi WNW 15.0 mph 21.9 mph 0.00 in Snow Light Snow
5:53 PM 18.0 °F 3.1 °F 12.9 °F 81% 30.30 in 1.0 mi WNW 16.1 mph 21.9 mph 0.00 in Snow Light Snow
6:53 PM 17.1 °F 3.6 °F 12.9 °F 84% 30.32 in 1.0 mi WNW 12.7 mph - 0.00 in Snow Light Snow
7:53 PM 17.1 °F 6.6 °F 12.9 °F 84% 30.32 in 2.5 mi WNW 8.1 mph - 0.00 in Snow Light Snow
8:50 PM 17.6 °F 8.2 °F 12.2 °F 79% 30.25 in 4.0 mi West 6.9 mph - 0.00 in Snow Light Snow
8:53 PM 17.1 °F 8.7 °F 12.9 °F 84% 30.31 in 3.0 mi West 5.8 mph - 0.00 in Snow Light Snow
9:28 PM 17.6 °F 8.2 °F 12.2 °F 79% 30.24 in 3.0 mi WSW 6.9 mph - 0.00 in Snow Light Snow
9:53 PM 18.0 °F 9.8 °F 14.0 °F 84% 30.30 in 6.0 mi West 5.8 mph - 0.00 in Snow Light Snow
10:53 PM 19.0 °F 11.1 °F 14.0 °F 81% 30.27 in 10.0 mi West 5.8 mph - 0.00 in   Overcast
11:53 PM 19.9 °F 9.3 °F 12.9 °F 74% 30.26 in 10.0 mi WNW 9.2 mph - 0.00 in Snow Light Snow